EWG473 EGKK-EDDK

Flight info

Callsign EWG473
Flight time 0h 53m
Altitude 23000
Route ODVIK Y311 DVR L9 KONAN/N0430F330 UL607 SPI/N0372F230 T857 DENOV T861 ERUKI ERUKI1B
Aircraft A20N/M-SDE2E3FGHIRWXY/LB1

Departure

Time 2026-05-06 20:35
Airport London Gatwick Airport (EGKK)

Arrival

Time 2026-05-06 21:29
Airport Cologne Bonn Airport (EDDK)
Time Latitude Longitude Altitude Speed Heading
2026-05-06 20:11 51.15890 -0.17194 199 ft 0 kts 335°
2026-05-06 20:19 51.15889 -0.17193 199 ft 1 kts 336°
2026-05-06 20:19 51.15875 -0.17184 199 ft 2 kts 335°
2026-05-06 20:19 51.15862 -0.17174 199 ft 2 kts 335°
2026-05-06 20:19 51.15848 -0.17164 199 ft 2 kts 335°
2026-05-06 20:20 51.15839 -0.17157 199 ft 0 kts 336°
2026-05-06 20:20 51.15827 -0.17144 199 ft 2 kts 299°
2026-05-06 20:20 51.15823 -0.17121 199 ft 2 kts 264°
2026-05-06 20:20 51.15826 -0.17106 199 ft 2 kts 239°
2026-05-06 20:21 51.15834 -0.17092 199 ft 1 kts 209°
2026-05-06 20:21 51.15838 -0.17088 199 ft 0 kts 214°
2026-05-06 20:23 51.15830 -0.17098 199 ft 2 kts 218°
2026-05-06 20:24 51.15814 -0.17131 199 ft 5 kts 249°
2026-05-06 20:24 51.15804 -0.17203 199 ft 8 kts 258°
2026-05-06 20:24 51.15791 -0.17306 199 ft 10 kts 258°
2026-05-06 20:24 51.15774 -0.17434 199 ft 12 kts 258°
2026-05-06 20:25 51.15753 -0.17584 199 ft 14 kts 257°
2026-05-06 20:25 51.15729 -0.17751 199 ft 16 kts 257°
2026-05-06 20:25 51.15704 -0.17931 199 ft 17 kts 258°
2026-05-06 20:25 51.15678 -0.18121 199 ft 17 kts 258°
2026-05-06 20:26 51.15656 -0.18290 199 ft 11 kts 258°
2026-05-06 20:26 51.15599 -0.18349 199 ft 12 kts 169°
2026-05-06 20:26 51.15542 -0.18330 199 ft 12 kts 167°
2026-05-06 20:26 51.15420 -0.18288 199 ft 14 kts 168°
2026-05-06 20:27 51.15320 -0.18253 199 ft 15 kts 167°
2026-05-06 20:27 51.15225 -0.18219 199 ft 8 kts 170°
2026-05-06 20:27 51.15185 -0.18267 199 ft 9 kts 260°
2026-05-06 20:27 51.15179 -0.18375 199 ft 10 kts 258°
2026-05-06 20:28 51.15162 -0.18503 199 ft 13 kts 258°
2026-05-06 20:28 51.15139 -0.18669 199 ft 17 kts 257°
2026-05-06 20:28 51.15112 -0.18868 199 ft 19 kts 258°
2026-05-06 20:28 51.15080 -0.19098 199 ft 22 kts 257°
2026-05-06 20:29 51.15045 -0.19346 199 ft 23 kts 258°
2026-05-06 20:29 51.15012 -0.19599 199 ft 23 kts 258°
2026-05-06 20:29 51.14978 -0.19848 199 ft 22 kts 258°
2026-05-06 20:29 51.14944 -0.20089 199 ft 22 kts 257°
2026-05-06 20:30 51.14910 -0.20329 199 ft 22 kts 258°
2026-05-06 20:30 51.14846 -0.20800 199 ft 21 kts 258°
2026-05-06 20:30 51.14816 -0.21029 199 ft 21 kts 257°
2026-05-06 20:31 51.14788 -0.21182 199 ft 21 kts 252°
2026-05-06 20:31 51.14733 -0.21399 199 ft 10 kts 196°
2026-05-06 20:31 51.14666 -0.21361 199 ft 7 kts 147°
2026-05-06 20:31 51.14624 -0.21330 199 ft 4 kts 168°
2026-05-06 20:32 51.14620 -0.21328 199 ft 0 kts 168°
2026-05-06 20:33 51.14619 -0.21328 199 ft 0 kts 168°
2026-05-06 20:33 51.14605 -0.21324 199 ft 2 kts 168°
2026-05-06 20:33 51.14580 -0.21313 199 ft 4 kts 162°
2026-05-06 20:33 51.14547 -0.21286 199 ft 6 kts 141°
2026-05-06 20:34 51.14529 -0.21246 199 ft 7 kts 117°
2026-05-06 20:34 51.14520 -0.21159 199 ft 0 kts 78°
2026-05-06 20:35 51.14524 -0.21130 199 ft 21 kts 78°
2026-05-06 20:35 51.14619 -0.20442 199 ft 103 kts 78°
2026-05-06 20:35 51.14819 -0.18993 267 ft 158 kts 78°
2026-05-06 20:35 51.15049 -0.17280 994 ft 160 kts 77°
2026-05-06 20:36 51.15276 -0.15581 1866 ft 159 kts 76°
2026-05-06 20:36 51.15504 -0.13876 2564 ft 168 kts 76°
2026-05-06 20:36 51.15762 -0.11983 3235 ft 180 kts 76°
2026-05-06 20:36 51.16044 -0.09969 3787 ft 200 kts 76°
2026-05-06 20:37 51.16379 -0.07656 4094 ft 231 kts 76°
2026-05-06 20:37 51.16718 -0.05059 4740 ft 251 kts 80°
2026-05-06 20:37 51.16871 -0.02236 5547 ft 264 kts 88°
2026-05-06 20:37 51.16846 0.00716 6517 ft 271 kts 91°
2026-05-06 20:38 51.16785 0.03710 7518 ft 276 kts 91°
2026-05-06 20:38 51.16742 0.05751 8167 ft 279 kts 91°
2026-05-06 20:38 51.16656 0.09880 9411 ft 286 kts 90°
2026-05-06 20:38 51.16595 0.13021 10310 ft 291 kts 90°
2026-05-06 20:39 51.16541 0.16256 11212 ft 296 kts 89°
2026-05-06 20:39 51.16536 0.18443 11806 ft 299 kts 88°
2026-05-06 20:39 51.16557 0.22892 12989 ft 304 kts 88°
2026-05-06 20:39 51.16573 0.26257 13856 ft 308 kts 88°
2026-05-06 20:40 51.16582 0.29662 14710 ft 313 kts 88°
2026-05-06 20:40 51.16589 0.33150 15542 ft 318 kts 88°
2026-05-06 20:40 51.16594 0.36632 16321 ft 323 kts 88°
2026-05-06 20:40 51.16596 0.40223 17102 ft 327 kts 89°
2026-05-06 20:41 51.16596 0.43848 17867 ft 332 kts 89°
2026-05-06 20:41 51.16596 0.46298 18369 ft 335 kts 89°
2026-05-06 20:41 51.16596 0.51274 19280 ft 343 kts 89°
2026-05-06 20:41 51.16595 0.55139 19623 ft 359 kts 89°
2026-05-06 20:42 51.16592 0.59167 19918 ft 376 kts 89°
2026-05-06 20:42 51.16588 0.63408 20218 ft 391 kts 89°
2026-05-06 20:42 51.16582 0.67715 20706 ft 399 kts 90°
2026-05-06 20:42 51.16573 0.72116 21341 ft 403 kts 90°
2026-05-06 20:43 51.16563 0.76578 21985 ft 406 kts 90°
2026-05-06 20:43 51.16550 0.81128 22594 ft 410 kts 90°
2026-05-06 20:43 51.16536 0.85674 22947 ft 414 kts 90°
2026-05-06 20:43 51.16519 0.90255 23007 ft 414 kts 90°
2026-05-06 20:44 51.16501 0.94801 23008 ft 414 kts 90°
2026-05-06 20:44 51.16482 0.99343 23010 ft 413 kts 90°
2026-05-06 20:44 51.16461 1.03944 23013 ft 413 kts 90°
2026-05-06 20:44 51.16438 1.08488 23008 ft 413 kts 90°
2026-05-06 20:45 51.16414 1.13034 23009 ft 413 kts 90°
2026-05-06 20:45 51.16387 1.17632 23007 ft 413 kts 90°
2026-05-06 20:45 51.16369 1.20666 23004 ft 413 kts 90°
2026-05-06 20:45 51.16328 1.26764 23000 ft 413 kts 90°
2026-05-06 20:46 51.16295 1.31336 22993 ft 413 kts 90°
2026-05-06 20:46 51.16240 1.35875 22995 ft 412 kts 92°
2026-05-06 20:46 51.16125 1.38912 22997 ft 412 kts 94°
2026-05-06 20:46 51.15843 1.44963 22993 ft 412 kts 94°
2026-05-06 20:47 51.15621 1.49536 22995 ft 412 kts 94°
2026-05-06 20:47 51.15399 1.54073 23059 ft 416 kts 94°
2026-05-06 20:47 51.15173 1.58692 23576 ft 420 kts 94°
2026-05-06 20:47 51.14949 1.63251 24254 ft 421 kts 94°
2026-05-06 20:48 51.14716 1.67939 24839 ft 424 kts 95°
2026-05-06 20:48 51.14489 1.72471 25362 ft 427 kts 95°
2026-05-06 20:48 51.14249 1.77232 25893 ft 430 kts 95°
2026-05-06 20:48 51.14009 1.81963 26396 ft 433 kts 95°
2026-05-06 20:49 51.13846 1.85146 26726 ft 435 kts 95°
2026-05-06 20:49 51.13517 1.91534 27362 ft 439 kts 95°
2026-05-06 20:49 51.13263 1.96408 27837 ft 441 kts 95°
2026-05-06 20:49 51.13010 2.01230 28289 ft 443 kts 95°
2026-05-06 20:50 51.12750 2.06179 28728 ft 446 kts 95°
2026-05-06 20:50 51.12490 2.11067 29131 ft 449 kts 95°
2026-05-06 20:50 51.12225 2.16018 29546 ft 451 kts 95°
2026-05-06 20:50 51.12043 2.19375 29904 ft 451 kts 95°
2026-05-06 20:51 51.11686 2.25951 30674 ft 448 kts 95°
2026-05-06 20:51 51.11507 2.29216 31042 ft 447 kts 95°
2026-05-06 20:51 51.11147 2.35716 31702 ft 446 kts 95°
2026-05-06 20:51 51.10871 2.40650 32174 ft 445 kts 95°
2026-05-06 20:52 51.10689 2.43893 32471 ft 445 kts 95°
2026-05-06 20:52 51.10319 2.50411 32947 ft 444 kts 95°
2026-05-06 20:52 51.10135 2.53662 32980 ft 444 kts 95°
2026-05-06 20:53 51.09261 2.64969 32986 ft 442 kts 100°
2026-05-06 20:53 51.07841 2.74261 32990 ft 442 kts 106°
2026-05-06 20:54 51.06439 2.81967 32988 ft 442 kts 106°
2026-05-06 20:54 51.04726 2.91323 32983 ft 441 kts 106°
2026-05-06 20:55 51.02724 3.02246 32981 ft 441 kts 106°
2026-05-06 20:55 51.01005 3.11591 32979 ft 441 kts 106°
2026-05-06 20:56 50.99571 3.19351 32980 ft 441 kts 106°
2026-05-06 20:56 50.97554 3.30212 32977 ft 441 kts 106°
2026-05-06 20:57 50.95815 3.39524 32974 ft 440 kts 106°
2026-05-06 20:57 50.94374 3.47211 32972 ft 440 kts 106°
2026-05-06 20:58 50.92332 3.58039 32974 ft 440 kts 106°
2026-05-06 20:58 50.90871 3.65744 32976 ft 440 kts 107°
2026-05-06 20:59 50.89083 3.75035 32972 ft 441 kts 107°
2026-05-06 20:59 50.87297 3.84268 32972 ft 440 kts 107°
2026-05-06 21:00 50.85525 3.93387 32973 ft 440 kts 107°
2026-05-06 21:00 50.83721 4.02628 32979 ft 440 kts 107°
2026-05-06 21:01 50.81612 4.13370 32984 ft 439 kts 107°
2026-05-06 21:01 50.80090 4.21085 32977 ft 439 kts 107°
2026-05-06 21:02 50.77968 4.31800 32974 ft 439 kts 107°
2026-05-06 21:02 50.76137 4.41003 32968 ft 439 kts 107°
2026-05-06 21:03 50.74618 4.48601 32969 ft 439 kts 107°
2026-05-06 21:03 50.72762 4.57836 32968 ft 440 kts 107°
2026-05-06 21:04 50.70963 4.66977 32976 ft 440 kts 107°
2026-05-06 21:04 50.68928 4.77530 32972 ft 440 kts 107°
2026-05-06 21:05 50.67444 4.85153 32965 ft 440 kts 108°
2026-05-06 21:05 50.66537 4.89786 32738 ft 439 kts 108°
2026-05-06 21:05 50.65629 4.94354 32403 ft 437 kts 108°
2026-05-06 21:05 50.64399 5.00360 31738 ft 434 kts 108°
2026-05-06 21:06 50.63771 5.03404 31317 ft 434 kts 108°
2026-05-06 21:06 50.62850 5.07863 30607 ft 434 kts 108°
2026-05-06 21:06 50.61913 5.12396 29867 ft 434 kts 108°
2026-05-06 21:06 50.60988 5.16868 29134 ft 434 kts 108°
2026-05-06 21:07 50.60052 5.21382 28388 ft 435 kts 108°
2026-05-06 21:07 50.59116 5.25890 27630 ft 435 kts 108°
2026-05-06 21:07 50.58168 5.30446 27097 ft 433 kts 108°
2026-05-06 21:07 50.57233 5.34935 26598 ft 431 kts 108°
2026-05-06 21:08 50.56317 5.39318 26102 ft 428 kts 108°
2026-05-06 21:08 50.55387 5.43761 25591 ft 424 kts 108°
2026-05-06 21:08 50.54475 5.48110 25086 ft 421 kts 108°
2026-05-06 21:08 50.53557 5.52473 24576 ft 417 kts 108°
2026-05-06 21:09 50.52658 5.56757 24073 ft 414 kts 107°
2026-05-06 21:09 50.52108 5.61135 23570 ft 411 kts 93°
2026-05-06 21:09 50.52235 5.65585 23066 ft 408 kts 80°
2026-05-06 21:09 50.53252 5.71252 22404 ft 403 kts 71°
2026-05-06 21:10 50.53840 5.73965 22074 ft 401 kts 71°
2026-05-06 21:10 50.55024 5.79382 21421 ft 396 kts 71°
2026-05-06 21:10 50.55628 5.82176 21081 ft 394 kts 71°
2026-05-06 21:10 50.56487 5.86202 20593 ft 391 kts 71°
2026-05-06 21:11 50.57335 5.90215 20100 ft 389 kts 71°
2026-05-06 21:11 50.58182 5.94252 19599 ft 386 kts 71°
2026-05-06 21:11 50.59016 5.98247 19103 ft 383 kts 71°
2026-05-06 21:11 50.60115 6.03526 18440 ft 380 kts 71°
2026-05-06 21:12 50.60925 6.07435 17951 ft 377 kts 70°
2026-05-06 21:12 50.61733 6.11352 17455 ft 374 kts 71°
2026-05-06 21:12 50.62271 6.13955 17129 ft 373 kts 71°
2026-05-06 21:12 50.63025 6.17798 16643 ft 371 kts 75°
2026-05-06 21:13 50.63490 6.23131 15989 ft 368 kts 87°
2026-05-06 21:13 50.63455 6.25836 15665 ft 367 kts 92°
2026-05-06 21:13 50.63272 6.29780 15192 ft 364 kts 93°
2026-05-06 21:13 50.62983 6.35069 14541 ft 361 kts 93°
2026-05-06 21:14 50.62844 6.37634 14217 ft 359 kts 93°
2026-05-06 21:14 50.62633 6.41569 13733 ft 356 kts 93°
2026-05-06 21:14 50.62430 6.45406 13262 ft 353 kts 93°
2026-05-06 21:14 50.62160 6.50526 12619 ft 350 kts 93°
2026-05-06 21:15 50.61962 6.54266 12146 ft 348 kts 93°
2026-05-06 21:15 50.61829 6.56784 11834 ft 346 kts 93°
2026-05-06 21:15 50.61561 6.61776 11201 ft 343 kts 92°
2026-05-06 21:15 50.61425 6.64302 10881 ft 341 kts 92°
2026-05-06 21:16 50.61227 6.67955 10510 ft 335 kts 93°
2026-05-06 21:16 50.61038 6.71436 10318 ft 322 kts 93°
2026-05-06 21:16 50.60934 6.74873 10181 ft 308 kts 88°
2026-05-06 21:16 50.61035 6.78076 10040 ft 295 kts 82°
2026-05-06 21:17 50.61262 6.81232 9909 ft 283 kts 81°
2026-05-06 21:17 50.61501 6.84288 9580 ft 280 kts 81°
2026-05-06 21:17 50.61736 6.87299 9220 ft 279 kts 81°
2026-05-06 21:17 50.62043 6.91324 8750 ft 276 kts 81°
2026-05-06 21:18 50.62194 6.93314 8517 ft 275 kts 81°
2026-05-06 21:18 50.62415 6.96284 8173 ft 273 kts 81°
2026-05-06 21:18 50.62706 7.00199 7812 ft 267 kts 81°
2026-05-06 21:18 50.62918 7.03052 7571 ft 260 kts 81°
2026-05-06 21:19 50.63126 7.05880 7316 ft 255 kts 81°
2026-05-06 21:19 50.63327 7.08600 7048 ft 251 kts 81°
2026-05-06 21:19 50.63527 7.11314 6763 ft 247 kts 81°
2026-05-06 21:19 50.63740 7.14032 6234 ft 255 kts 80°
2026-05-06 21:20 50.63846 7.15872 6058 ft 252 kts 86°
2026-05-06 21:20 50.63766 7.18619 5887 ft 244 kts 92°
2026-05-06 21:20 50.63607 7.21238 5662 ft 240 kts 93°
2026-05-06 21:20 50.63430 7.23838 5374 ft 237 kts 93°
2026-05-06 21:21 50.63127 7.26386 5056 ft 238 kts 105°
2026-05-06 21:21 50.62570 7.28818 4752 ft 238 kts 108°
2026-05-06 21:21 50.61992 7.31249 4446 ft 236 kts 103°
2026-05-06 21:21 50.61892 7.33747 4114 ft 228 kts 72°
2026-05-06 21:22 50.62616 7.35868 3902 ft 217 kts 48°
2026-05-06 21:22 50.63677 7.37505 3682 ft 210 kts 26°
2026-05-06 21:22 50.65066 7.37987 3478 ft 204 kts 353°
2026-05-06 21:22 50.66453 7.37528 3393 ft 206 kts 345°
2026-05-06 21:23 50.67835 7.36869 3313 ft 207 kts 343°
2026-05-06 21:23 50.69208 7.36170 3243 ft 206 kts 343°
2026-05-06 21:23 50.71016 7.35243 3130 ft 206 kts 343°
2026-05-06 21:23 50.72372 7.34496 3043 ft 200 kts 338°
2026-05-06 21:24 50.73190 7.33846 2990 ft 196 kts 330°
2026-05-06 21:24 50.74259 7.32670 3055 ft 177 kts 324°
2026-05-06 21:24 50.75159 7.31519 3052 ft 159 kts 323°
2026-05-06 21:24 50.75980 7.30398 2873 ft 152 kts 321°
2026-05-06 21:25 50.76751 7.29306 2655 ft 145 kts 320°
2026-05-06 21:25 50.77462 7.28279 2462 ft 136 kts 320°
2026-05-06 21:25 50.78144 7.27287 2290 ft 128 kts 320°
2026-05-06 21:25 50.78788 7.26349 2121 ft 125 kts 320°
2026-05-06 21:26 50.79430 7.25415 1959 ft 125 kts 320°
2026-05-06 21:26 50.80065 7.24490 1796 ft 124 kts 320°
2026-05-06 21:26 50.80909 7.23262 1573 ft 124 kts 320°
2026-05-06 21:26 50.81332 7.22647 1459 ft 124 kts 319°
2026-05-06 21:27 50.81971 7.21719 1286 ft 123 kts 319°
2026-05-06 21:27 50.82596 7.20798 1119 ft 123 kts 317°
2026-05-06 21:27 50.83215 7.19876 953 ft 123 kts 318°
2026-05-06 21:27 50.83851 7.18954 780 ft 123 kts 318°
2026-05-06 21:28 50.84480 7.18063 613 ft 122 kts 318°
2026-05-06 21:28 50.85108 7.17154 464 ft 122 kts 318°
2026-05-06 21:28 50.85738 7.16250 310 ft 118 kts 317°
2026-05-06 21:28 50.86261 7.15496 286 ft 78 kts 317°
2026-05-06 21:29 50.86584 7.15030 276 ft 58 kts 317°
2026-05-06 21:29 50.86814 7.14679 267 ft 31 kts 304°
2026-05-06 21:29 50.86881 7.14381 261 ft 18 kts 280°
2026-05-06 21:29 50.86900 7.14215 257 ft 13 kts 280°
2026-05-06 21:30 50.86911 7.14124 256 ft 9 kts 281°
2026-05-06 21:30 50.86924 7.14010 255 ft 12 kts 280°
2026-05-06 21:30 50.86957 7.13875 253 ft 14 kts 314°
2026-05-06 21:30 50.87036 7.13758 250 ft 16 kts 317°
2026-05-06 21:31 50.87127 7.13627 248 ft 18 kts 317°
2026-05-06 21:31 50.87224 7.13486 246 ft 19 kts 317°
2026-05-06 21:31 50.87325 7.13339 245 ft 20 kts 317°
2026-05-06 21:31 50.87430 7.13188 244 ft 20 kts 317°
2026-05-06 21:32 50.87535 7.13037 243 ft 20 kts 317°
2026-05-06 21:32 50.87746 7.12731 242 ft 20 kts 317°
2026-05-06 21:32 50.87825 7.12626 241 ft 13 kts 333°
2026-05-06 21:33 50.87920 7.12604 241 ft 13 kts 334°
2026-05-06 21:33 50.87997 7.12500 239 ft 15 kts 317°
2026-05-06 21:33 50.88049 7.12424 237 ft 5 kts 315°
2026-05-06 21:33 50.88049 7.12371 237 ft 7 kts 222°
2026-05-06 21:34 50.88006 7.12320 236 ft 6 kts 216°
2026-05-06 21:34 50.87968 7.12298 235 ft 4 kts 178°
2026-05-06 21:34 50.87942 7.12303 235 ft 2 kts 171°
2026-05-06 21:34 50.87934 7.12305 235 ft 0 kts 172°